DateTimeUTC,F1_A11,F1_S11,BsB_S11,BsG_S11,BsR_S11,BbsB_S11,BbsG_S11,BbsR_S11,BaB_A11,BaG_A11,BaR_A11,Tu_S11,T_S11,Uu_S11,U_S11,P_S11,T1_A11
2021-06-23T04:00:00Z,00040200,20000000,,,,,,,-000.06,-000.03,-000.33,17.8,24.7,03.4,02.2,0676.1,31.0
2021-06-23T04:01:00Z,00040200,20000000,,,,,,,0000.32,0000.13,0000.47,17.8,24.8,03.4,02.2,0676.1,31.1
2021-06-23T04:02:00Z,00040200,20000000,,,,,,,-000.01,0000.24,-000.31,17.9,24.8,03.4,02.2,0676.1,31.1
2021-06-23T04:03:00Z,00040200,60000000,,,,,,,0000.36,-000.01,0000.39,17.9,24.8,03.4,02.2,0676.1,31.1
2021-06-23T04:04:00Z,00040200,40000000,0001.14,0000.88,0000.29,-000.19,0000.15,0000.12,0000.79,0000.56,0000.89,18.2,24.8,03.7,02.5,0677.0,31.1
2021-06-23T04:05:00Z,00040200,00000000,0001.72,0001.18,0000.38,-000.23,0000.21,0000.01,0000.06,0000.49,-000.29,18.2,24.7,03.7,02.5,0677.1,31.1
2021-06-23T04:06:00Z,00040200,00000000,0001.97,0001.26,0000.50,0000.60,0000.05,0000.02,0000.80,0000.70,0000.66,18.2,24.7,03.7,02.5,0677.1,31.1
2021-06-23T04:07:00Z,00040200,00000000,0001.08,0000.69,0000.28,0000.69,0000.12,-000.08,0000.38,0000.48,0000.57,18.2,24.6,03.7,02.5,0677.1,31.0
2021-06-23T04:08:00Z,00040200,00000000,0001.14,0001.06,0000.77,0000.65,-000.05,-000.04,0000.17,0000.39,-000.05,18.1,24.6,03.8,02.5,0677.1,31.0
2021-06-23T04:09:00Z,00040200,00000000,0001.61,0001.06,0000.53,0000.23,0000.02,0000.07,0000.78,0000.20,0000.49,18.1,24.6,03.8,02.6,0677.1,31.0
2021-06-23T04:10:00Z,00040200,00000000,0001.43,0000.90,0000.17,0000.88,0000.01,-000.10,0000.98,0000.70,0000.32,18.0,24.5,03.9,02.6,0677.1,31.0
2021-06-23T04:11:00Z,00040200,00000000,0001.50,0001.07,0000.58,0000.13,0000.19,-000.03,0000.32,0000.23,0000.52,18.0,24.5,03.8,02.6,0677.1,31.0
2021-06-23T04:12:00Z,00040200,00000000,0001.97,0000.78,0000.04,0000.68,0000.06,-000.11,0000.34,0000.35,0000.24,18.0,24.5,03.9,02.6,0677.1,31.0
2021-06-23T04:13:00Z,00040200,00000000,0001.81,0001.26,0000.41,0000.04,-000.05,0000.11,0000.89,0000.51,0000.90,18.0,24.5,03.9,02.6,0677.1,31.0
2021-06-23T04:14:00Z,00040200,00000000,0001.25,0001.11,0000.40,0000.45,-000.07,0000.14,0000.56,0001.27,0000.31,18.0,24.5,03.9,02.7,0677.1,31.0
2021-06-23T04:15:00Z,00040200,00000000,0001.35,0000.94,0000.53,0000.30,0000.22,-000.12,0000.55,0000.64,0000.27,18.1,24.5,04.0,02.7,0677.1,31.0
2021-06-23T04:16:00Z,00040200,00000000,0001.38,0000.95,0000.55,0000.03,0000.07,0000.05,0000.62,0000.51,0000.39,18.2,24.5,04.0,02.7,0677.2,31.1
2021-06-23T04:17:00Z,00040200,00000000,0001.45,0001.11,0000.70,0000.14,0000.14,0000.26,0000.72,0000.04,0000.61,18.3,24.6,04.1,02.8,0677.2,31.1
2021-06-23T04:18:00Z,00040200,00000000,0001.67,0000.87,0000.49,0000.06,0000.07,0000.08,0000.31,0000.49,-000.16,18.3,24.6,04.1,02.7,0677.2,31.1
2021-06-23T04:19:00Z,00040200,00000000,0002.25,0000.82,0000.39,0000.18,0000.33,0000.14,0000.50,0000.29,0000.70,18.3,24.6,04.0,02.7,0677.2,31.1
2021-06-23T04:20:00Z,00040200,00000000,0000.61,0001.06,0000.33,0000.10,0000.25,0000.12,0000.08,0000.59,0000.30,18.3,24.6,04.1,02.7,0677.2,31.1
2021-06-23T04:21:00Z,00040200,00000000,0001.92,0001.16,0000.39,0001.04,0000.20,0000.17,0000.94,0000.44,0000.33,18.2,24.6,04.2,02.8,0677.2,31.1
2021-06-23T04:22:00Z,00040200,00000000,0001.21,0001.03,0000.60,0000.09,0000.28,-000.03,0000.68,0000.68,0000.53,18.2,24.6,04.2,02.8,0677.2,31.0
2021-06-23T04:23:00Z,00040200,00000000,0002.08,0000.72,0000.35,-000.31,0000.14,0000.03,0000.68,0000.29,0000.48,18.1,24.6,04.1,02.8,0677.2,31.0
2021-06-23T04:24:00Z,00040200,00000000,0001.42,0000.93,-000.06,-000.09,-000.01,-000.07,0000.60,0001.01,0000.16,18.1,24.5,04.2,02.8,0677.2,31.0
2021-06-23T04:25:00Z,00040200,00000000,0002.13,0000.98,0000.31,0001.05,0000.05,0000.20,0000.70,0000.25,0001.10,18.1,24.5,04.2,02.9,0677.2,31.0
2021-06-23T04:26:00Z,00040200,00000000,0001.01,0000.97,0000.61,0000.40,0000.20,0000.10,0000.45,0001.08,0000.06,18.0,24.5,04.2,02.8,0677.2,31.0
2021-06-23T04:27:00Z,00040200,00000000,0001.92,0000.96,0000.56,-000.02,0000.01,0000.27,0000.54,0000.37,0000.57,18.0,24.4,04.4,02.9,0677.2,31.0
2021-06-23T04:28:00Z,00040200,00000000,0001.12,0001.19,0000.30,0000.60,0000.27,0000.28,0001.05,0000.44,0000.25,18.0,24.4,04.3,02.9,0677.2,31.0
2021-06-23T04:29:00Z,00040200,00000000,0001.59,0000.78,0000.49,0000.50,0000.09,0000.23,0000.42,0000.57,0000.46,18.1,24.5,04.3,02.9,0677.2,31.0
2021-06-23T04:30:00Z,00040200,00000000,0001.64,0000.64,0000.31,0000.18,0000.14,0000.36,0000.71,0000.49,0000.93,18.1,24.5,04.4,03.0,0677.3,31.0
2021-06-23T04:31:00Z,00040200,00000000,0001.90,0000.78,0000.16,0000.19,0000.38,-000.12,0000.66,0000.86,0000.39,18.2,24.5,04.3,02.9,0677.3,31.0
2021-06-23T04:32:00Z,00040200,00000000,0001.14,0000.95,0000.54,0000.14,0000.25,0000.05,0000.42,0000.88,-000.06,18.3,24.6,04.5,03.1,0677.3,31.1
2021-06-23T04:33:00Z,00040200,00000000,0001.91,0001.01,0000.72,0000.79,0000.01,-000.10,0000.18,-000.27,0000.14,18.4,24.6,04.4,03.0,0677.3,31.1
2021-06-23T04:34:00Z,00040200,00000000,0001.32,0001.16,0000.53,0000.62,0000.19,-000.13,0001.05,0000.71,0000.97,18.4,24.6,04.4,03.0,0677.3,31.1
2021-06-23T04:35:00Z,00040200,00000000,0001.50,0001.18,0000.43,0000.21,0000.25,0000.08,-000.06,0000.45,0000.06,18.4,24.6,04.3,02.9,0677.3,31.0
2021-06-23T04:36:00Z,00040200,00000000,0001.59,0000.88,0000.29,0000.41,0000.12,-000.04,0000.60,0000.57,0000.58,18.3,24.6,04.4,03.0,0677.3,31.0
2021-06-23T04:37:00Z,00040200,00000000,0001.03,0001.10,0000.52,0000.73,-000.02,-000.16,0000.87,0000.89,0000.30,18.3,24.6,04.5,03.0,0677.2,31.0
2021-06-23T04:38:00Z,00040200,00000000,0001.41,0000.85,0000.24,0000.16,0000.09,-000.31,0000.52,0000.23,0000.38,18.2,24.6,04.5,03.0,0677.2,31.0
2021-06-23T04:39:00Z,00040200,00000000,0001.52,0000.62,0000.40,0000.71,0000.14,0000.05,0000.31,0000.38,0000.71,18.2,24.6,04.4,03.0,0677.2,31.0
2021-06-23T04:40:00Z,00040200,00000000,0001.99,0000.78,0000.33,0000.17,-000.14,-000.02,0000.49,0000.51,0000.08,18.2,24.5,04.5,03.0,0677.2,31.0
2021-06-23T04:41:00Z,00040200,00000000,0001.34,0000.89,0000.58,0000.20,0000.18,0000.36,0000.31,-000.02,0000.26,18.1,24.5,04.4,03.0,0677.2,31.0
2021-06-23T04:42:00Z,00040200,00000000,0002.05,0001.15,0000.33,0000.66,0000.13,0000.13,0000.44,0001.02,0000.46,18.1,24.5,04.5,03.0,0677.2,31.0
2021-06-23T04:43:00Z,00040200,00000000,0001.62,0001.43,0000.51,0000.62,0000.17,-000.04,0001.30,0000.40,0000.46,18.1,24.5,04.6,03.1,0677.2,31.0
2021-06-23T04:44:00Z,00040200,00000000,0001.56,0001.02,0000.33,0000.34,0000.09,0000.12,0000.61,0000.74,0000.78,18.1,24.5,04.6,03.1,0677.2,31.0
2021-06-23T04:45:00Z,00040200,00000000,0001.30,0001.48,0000.44,0000.30,0000.00,0000.20,0000.57,0000.82,0000.44,18.2,24.5,04.6,03.1,0677.2,31.0
2021-06-23T04:46:00Z,00040200,00000000,0001.96,0000.82,0000.62,0000.29,0000.33,0000.08,0000.87,0000.15,0000.16,18.3,24.5,04.6,03.1,0677.2,31.1
2021-06-23T04:47:00Z,00040200,00000000,0001.61,0000.74,0000.56,0000.73,0000.06,0000.01,0000.02,0000.57,0000.48,18.4,24.6,04.6,03.2,0677.2,31.1
2021-06-23T04:48:00Z,00040200,00000000,0001.14,0001.07,0000.56,0000.47,0000.19,0000.13,0000.75,0000.42,0000.38,18.4,24.6,04.6,03.2,0677.2,31.1
2021-06-23T04:49:00Z,00040200,00000000,0001.46,0001.08,0000.46,0000.60,0000.16,-000.03,0000.07,0000.69,0000.38,18.4,24.7,04.6,03.1,0677.2,31.1
2021-06-23T04:50:00Z,00040200,00000000,0002.05,0000.75,0000.52,0000.35,0000.32,0000.02,0000.75,0000.44,0000.45,18.4,24.6,04.5,03.1,0677.2,31.1
2021-06-23T04:51:00Z,00040200,00000000,0001.63,0000.86,0000.56,0000.52,0000.33,0000.17,0000.16,0000.24,0000.07,18.3,24.6,04.6,03.1,0677.1,31.0
2021-06-23T04:52:00Z,00040200,00000000,0001.79,0000.82,-000.02,0000.59,-000.22,-000.09,0001.00,0000.38,0000.74,18.3,24.6,04.6,03.1,0677.1,31.0
2021-06-23T04:53:00Z,00040200,00000000,0001.91,0000.98,0000.43,0000.04,-000.03,0000.17,0000.48,0000.89,0000.32,18.2,24.6,04.6,03.1,0677.1,31.0
2021-06-23T04:54:00Z,00040200,00000000,0000.89,0001.10,0000.24,0000.11,0000.05,-000.00,0000.84,0000.75,0000.21,18.2,24.5,04.7,03.2,0677.1,31.0
2021-06-23T04:55:00Z,00040200,00000000,0001.71,0000.80,0000.28,0000.26,-000.02,0000.25,0000.42,0000.43,0000.68,18.2,24.5,04.7,03.2,0677.1,31.0
2021-06-23T04:56:00Z,00040200,00000000,0001.73,0001.34,0000.43,0000.06,0000.16,-000.18,0000.68,0000.43,0000.35,18.1,24.5,04.7,03.2,0677.1,31.0
2021-06-23T04:57:00Z,00040200,40000000,,,,,,,-000.47,-000.51,-000.14,18.1,24.5,04.9,03.3,0677.0,31.0
2021-06-23T04:58:00Z,00040200,60000000,,,,,,,0000.30,0000.11,-000.17,17.9,24.6,04.6,03.0,0676.1,31.0
2021-06-23T04:59:00Z,00040200,20000000,,,,,,,0000.22,0000.46,0000.45,17.9,24.7,04.6,03.0,0676.1,31.0
